Weather History for Piney Island, NC

Change the Weather History Date:

Friday, May 3, 2013

  Actual Average (KMRH) Record (KMRH)
Temperature  
Mean Temperature 62 °F -  
Max Temperature 66 °F 75 °F 87 °F (1959)
Min Temperature 57 °F 55 °F 42 °F (1978)
Degree Days  
Heating Degree Days 4    
Growing Degree Days 12 (Base 50)    
Moisture  
Dew Point 55 °F    
Average Humidity 79    
Maximum Humidity 94    
Minimum Humidity 60    
Precipitation  
Precipitation 0.00 in - - ()
Sea Level Pressure  
Sea Level Pressure 30.19 in    
Wind  
Wind Speed 18 mph (NE)    
Max Wind Speed 26 mph    
Max Gust Speed 36 mph    
Visibility 10 miles    
Events      
Averages and records for this station are not official NWS values.
T = Trace of Precipitation, MM = Missing Value Source: NWS Daily Summary

Daily Weather History Graph

Daily Weather History Graph

Search for Another Location

Airport:

Trip Planner

Search our weather history database for the weather conditions in past years. The results will help you decide how hot, cold, wet, or windy it might be!

Date:

Astronomy

May. 03, 2013 Rise Set
Actual Time 6:12 AM EDT 7:53 PM EDT
Civil Twilight 5:45 AM EDT 8:20 PM EDT
Nautical Twilight 5:12 AM EDT 8:53 PM EDT
Astronomical Twilight 4:38 AM EDT 9:28 PM EDT
Moon 2:21 AM EDT (5/3) 1:59 PM EDT (5/3)
Length of Visible Light 14h 35m
Length of Day
13h 40m
Last Quarter, 37% of the Moon is Illuminated
May 3
Last Quarter
May 9
New
May 18
First Quarter
May 25
Full
May 31
Last Quarter

Hourly Weather History & Observations

Time (EDT) Temp. Dew Point Humidity Pressure Visibility Wind Dir Wind Speed Gust Speed Precip Events Conditions
12:56 AM 62.1 °F 57.9 °F 86% 30.21 in 9.0 mi NNE 17.3 mph 23.0 mph N/A   Scattered Clouds
1:33 AM 60.8 °F 57.2 °F 88% 30.18 in 9.0 mi NNE 13.8 mph 20.7 mph N/A   Mostly Cloudy
1:56 AM 61.0 °F 59.0 °F 93% 30.18 in 9.0 mi NNE 15.0 mph 21.9 mph N/A   Overcast
2:48 AM 60.8 °F 59.0 °F 94% 30.15 in 9.0 mi NNE 16.1 mph - N/A   Scattered Clouds
2:56 AM 62.1 °F 59.0 °F 90% 30.17 in 9.0 mi NNE 15.0 mph 21.9 mph N/A   Scattered Clouds
3:16 AM 60.8 °F 59.0 °F 94% 30.15 in 9.0 mi NNE 12.7 mph 21.9 mph N/A   Mostly Cloudy
3:48 AM 60.8 °F 59.0 °F 94% 30.15 in 9.0 mi NNE 13.8 mph - N/A   Scattered Clouds
3:56 AM 61.0 °F 59.0 °F 93% 30.17 in 9.0 mi NNE 13.8 mph - N/A   Partly Cloudy
4:56 AM 61.0 °F 59.0 °F 93% 30.17 in 9.0 mi NNE 12.7 mph - N/A   Scattered Clouds
5:56 AM 62.1 °F 59.0 °F 90% 30.16 in 9.0 mi NNE 15.0 mph 21.9 mph N/A   Clear
6:32 AM 62.6 °F 59.0 °F 88% 30.16 in 8.0 mi NNE 16.1 mph 23.0 mph N/A   Scattered Clouds
6:56 AM 62.1 °F 59.0 °F 90% 30.18 in 8.0 mi NNE 13.8 mph 23.0 mph N/A   Scattered Clouds
7:56 AM 64.0 °F 57.9 °F 80% 30.19 in 9.0 mi NE 20.7 mph 32.2 mph N/A   Clear
8:56 AM 64.9 °F 57.9 °F 78% 30.20 in 10.0 mi ENE 20.7 mph 27.6 mph N/A   Partly Cloudy
9:56 AM 66.0 °F 57.9 °F 75% 30.22 in 10.0 mi NE 25.3 mph 33.4 mph N/A   Overcast
10:56 AM 66.0 °F 57.0 °F 73% 30.23 in 10.0 mi NE 23.0 mph 31.1 mph N/A   Scattered Clouds
11:56 AM 66.0 °F 55.0 °F 68% 30.24 in 10.0 mi ENE 24.2 mph 35.7 mph N/A   Mostly Cloudy
12:56 PM 64.9 °F 54.0 °F 68% 30.23 in 10.0 mi NE 23.0 mph 33.4 mph N/A   Mostly Cloudy
1:56 PM 64.9 °F 53.1 °F 65% 30.22 in 10.0 mi ENE 20.7 mph 32.2 mph N/A   Clear
2:56 PM 63.0 °F 52.0 °F 67% 30.20 in 10.0 mi NE 25.3 mph 35.7 mph N/A   Clear
3:56 PM 63.0 °F 48.9 °F 60% 30.19 in 10.0 mi ENE 25.3 mph 35.7 mph N/A   Partly Cloudy
4:56 PM 61.0 °F 48.9 °F 64% 30.20 in 10.0 mi NE 25.3 mph 34.5 mph N/A   Mostly Cloudy
5:56 PM 61.0 °F 48.0 °F 62% 30.19 in 10.0 mi NE 25.3 mph 33.4 mph N/A   Clear
6:56 PM 61.0 °F 50.0 °F 67% 30.19 in 10.0 mi NE 24.2 mph 33.4 mph N/A   Partly Cloudy
7:56 PM 60.1 °F 48.9 °F 67% 30.19 in 10.0 mi NE 23.0 mph 33.4 mph N/A   Mostly Cloudy
8:56 PM 60.1 °F 51.1 °F 72% 30.20 in 10.0 mi NE 21.9 mph 31.1 mph N/A   Overcast
9:23 PM 60.8 °F 51.8 °F 72% 30.18 in 10.0 mi NE 26.5 mph 32.2 mph N/A   Overcast
9:56 PM 59.0 °F 52.0 °F 78% 30.19 in 10.0 mi NNE 23.0 mph 32.2 mph N/A   Mostly Cloudy
10:56 PM 57.9 °F 52.0 °F 81% 30.18 in 10.0 mi NE 20.7 mph 32.2 mph N/A   Overcast
11:56 PM 59.0 °F 53.1 °F 81% 30.17 in 10.0 mi NNE 19.6 mph 26.5 mph N/A   Mostly Cloudy